Location: Unspecified
(42.3650°N, 71.1030°W)
Time: 20:27:01
(UTC+00:00)

NOAA 18 - Visible Passes

Search period start: 12 July 2024 00:00
Search period end: 22 July 2024 00:00
Orbit: 838 x 858 km, 98.9° (Epoch: 12 July)

Date Brightness Start Highest point End Pass type
(mag) Time Alt. Az. Time Alt. Az. Time Alt. Az.
12 Jul 6.7 01:34:01 11° ESE 01:37:41 22° ENE 01:41:44 10° NNE visible
12 Jul 5.6 03:15:58 37° SSW 03:17:53 56° W 03:23:16 10° NNW visible
13 Jul 7.0 01:21:52 10° E 01:25:18 17° ENE 01:28:45 10° NNE visible
13 Jul 5.3 03:03:18 40° S 03:05:19 72° WSW 03:10:48 10° NNW visible
14 Jul 7.2 01:10:21 10° E 01:12:56 14° ENE 01:15:33 10° NNE visible
14 Jul 5.1 02:50:37 39° SSE 02:52:46 89° ENE 02:58:16 10° NNW visible
14 Jul 7.5 04:32:34 10° WSW 04:34:07 12° W 04:35:59 10° WNW visible
15 Jul 7.4 00:59:29 10° ENE 01:00:37 11° NE 01:01:44 10° NE visible
15 Jul 5.2 02:37:57 36° SSE 02:40:14 70° ENE 02:45:42 10° N visible
15 Jul 7.2 04:19:54 14° WSW 04:21:23 16° W 04:24:35 10° NW visible
16 Jul 5.5 02:25:17 31° SE 02:27:44 55° ENE 02:33:05 10° N visible
16 Jul 6.9 04:07:14 18° WSW 04:08:42 20° W 04:12:41 10° NW visible
17 Jul 5.8 02:12:37 26° ESE 02:15:15 43° ENE 02:20:25 10° N visible
17 Jul 6.6 03:54:34 23° WSW 03:56:02 26° W 04:00:35 10° NW visible
18 Jul 6.1 01:59:57 21° ESE 02:02:47 34° ENE 02:07:41 10° N visible
18 Jul 6.3 03:41:54 29° SW 03:43:22 33° W 03:48:19 10° NNW visible
19 Jul 6.4 01:47:17 17° ESE 01:50:21 27° ENE 01:54:54 10° N visible
19 Jul 5.9 03:29:14 35° SW 03:30:45 43° W 03:35:59 10° NNW visible
20 Jul 6.7 01:34:37 13° ESE 01:37:57 22° ENE 01:42:02 10° NNE visible
20 Jul 5.6 03:16:34 41° SSW 03:18:09 56° W 03:23:34 10° NNW visible
21 Jul 7.0 01:22:06 10° E 01:25:34 17° ENE 01:29:02 10° NNE visible
21 Jul 5.3 03:03:54 45° S 03:05:34 72° WSW 03:11:05 10° NNW visible
